MDT,Max TemperatureF,Mean TemperatureF,Min TemperatureF,Max Dew PointF,MeanDew PointF,Min DewpointF,Max Humidity, Mean Humidity, Min Humidity, Max Sea Level PressureIn, Mean Sea Level PressureIn, Min Sea Level PressureIn, Max VisibilityMiles, Mean VisibilityMiles, Min VisibilityMiles, Max Wind SpeedMPH, Mean Wind SpeedMPH, Max Gust SpeedMPH,PrecipitationIn, CloudCover, Events, WindDirDegrees
2012-10-1,66,50,33,45,34,27,100,60,23,30.31,30.15,29.82,10,10,10,20,8,25,0.00,1,,222
2012-10-2,71,56,41,37,33,27,70,39,28,29.90,29.78,29.71,10,10,10,17,11,25,0.00,1,,284
2012-10-3,48,40,32,37,34,32,100,93,62,30.38,30.11,29.87,10,8,0,21,13,26,6.57,8,Rain-Snow-Thunderstorm,352
2012-10-4,41,32,24,34,29,23,100,87,53,30.41,30.38,30.36,10,10,1,16,10,22,0.00,6,Rain,324
2012-10-5,39,29,19,25,20,16,93,74,45,30.42,30.39,30.36,10,10,10,17,5,23,0.00,2,,321
2012-10-6,44,29,14,23,18,10,93,65,31,30.42,30.30,30.09,10,10,10,14,4,20,0.00,1,,248
2012-10-7,57,42,28,34,28,19,75,56,36,30.08,29.91,29.70,10,10,10,18,13,25,0.00,2,,262
2012-10-8,53,45,37,39,34,23,81,62,46,29.93,29.79,29.70,10,10,9,26,17,32,0.00,7,,308
2012-10-9,44,35,26,27,22,14,93,60,29,30.08,30.04,29.93,10,10,10,23,13,31,0.00,5,,297
2012-10-10,66,48,30,32,30,23,93,61,26,30.09,29.93,29.81,10,10,10,26,11,37,0.00,5,,274
2012-10-11,39,36,32,32,28,25,100,76,56,30.34,30.24,30.10,10,10,2,14,8,18,0.05,8,Rain,33
2012-10-12,69,50,30,34,31,28,93,65,25,30.15,29.84,29.68,10,10,10,20,14,28,0.21,2,Rain,175
2012-10-13,64,50,37,37,34,32,93,61,30,29.97,29.82,29.67,10,10,9,14,7,18,0.00,1,Rain,279
2012-10-14,66,50,35,39,35,32,93,58,28,30.02,29.96,29.86,10,10,10,22,8,30,0.00,2,,252
2012-10-15,71,60,48,50,39,32,100,55,27,29.85,29.74,29.69,10,10,6,20,12,29,0.00,4,Rain,253
2012-10-16,59,50,41,50,46,37,100,88,59,29.71,29.47,29.31,10,9,3,23,11,39,1.62,3,Rain,230
2012-10-17,50,44,37,39,26,18,100,53,28,29.76,29.61,29.38,10,10,3,48,33,62,11.58,4,Rain,302
2012-10-18,44,36,28,32,30,25,100,74,56,30.06,29.96,29.76,10,10,10,41,29,52,21.64,6,Rain,317
2012-10-19,59,39,19,32,27,19,100,66,31,30.03,29.79,29.59,10,10,10,15,5,20,7.71,0,Rain,188
2012-10-20,66,52,37,46,35,32,93,56,32,29.73,29.58,29.53,10,10,5,23,8,30,0.02,3,Rain,242
2012-10-21,48,44,39,41,33,27,93,69,46,30.02,29.93,29.75,10,10,10,21,7,25,0.00,7,Rain,31
2012-10-22,42,37,32,37,34,32,100,89,66,30.05,29.90,29.68,10,9,3,26,16,34,0.06,7,Rain-Snow,122
2012-10-23,41,36,32,39,35,28,100,90,65,29.88,29.74,29.61,10,9,3,21,11,29,0.03,5,Rain,272
2012-10-24,35,30,24,25,23,21,93,81,60,30.13,30.03,29.92,10,10,10,20,12,24,0.00,4,,302
2012-10-25,30,27,24,23,20,16,93,74,64,30.34,30.23,30.13,10,10,10,24,18,32,0.00,8,,307
2012-10-26,26,25,24,19,16,14,80,69,64,30.37,30.36,30.34,10,10,5,23,17,31,0.02,8,Rain-Snow,298
2012-10-27,,,,,,,,,,,,,,,,,,,,,,
2012-10-28,,,,,,,,,,,,,,,,,,,,,,
2012-10-29,41,40,39,41,39,39,100,97,93,29.94,29.93,29.92,10,10,10,7,6,,0.00,0,,171
2012-10-30,59,47,35,43,38,32,100,82,45,30.02,29.98,29.93,10,10,2,13,7,,0.02,1,Rain-Thunderstorm,229
2012-10-31,46,39,32,39,35,32,100,87,66,30.12,30.03,29.93,10,8,0,18,7,20,0.00,6,Fog,29